Hourly Weather Rio Negro

Today, 31 October, Saturday

Time Temperature Precipitation Wind Pressure Humidity
00:00 +18°C° 0 mm 4 mps 738 mmHg 24%
01:00 +17°C° 0 mm 4 mps 738 mmHg 26%
02:00 +16°C° 0 mm 3 mps 738 mmHg 28%
03:00 +16°C° 0 mm 3 mps 738 mmHg 30%
04:00 +14°C° 0 mm 3 mps 738 mmHg 32%
05:00 +14°C° 0 mm 2 mps 738 mmHg 34%
06:00 +17°C° 0 mm 3 mps 738 mmHg 31%
07:00 +19°C° 0 mm 3 mps 739 mmHg 27%
08:00 +21°C° 0 mm 4 mps 739 mmHg 24%
09:00 +23°C° 0 mm 4 mps 739 mmHg 21%
10:00 +25°C° 0 mm 4 mps 739 mmHg 18%
11:00 +27°C° 0 mm 4 mps 739 mmHg 15%
12:00 +28°C° 0 mm 5 mps 738 mmHg 14%
13:00 +29°C° 0 mm 5 mps 738 mmHg 13%
14:00 +30°C° 0 mm 5 mps 737 mmHg 12%
15:00 +30°C° 0 mm 5 mps 737 mmHg 11%
16:00 +30°C° 0 mm 5 mps 737 mmHg 11%
17:00 +30°C° 0 mm 5 mps 736 mmHg 11%
18:00 +28°C° 0 mm 5 mps 736 mmHg 13%
19:00 +27°C° 0 mm 4 mps 736 mmHg 15%
20:00 +25°C° 0 mm 4 mps 736 mmHg 17%
21:00 +24°C° 0 mm 3 mps 737 mmHg 19%
22:00 +22°C° 0 mm 3 mps 737 mmHg 21%
23:00 +21°C° 0 mm 3 mps 737 mmHg 23%

Tomorrow, 1 November, Sunday

Time Temperature Precipitation Wind Pressure Humidity
00:00 +20°C° 0 mm 3 mps 737 mmHg 27%
01:00 +19°C° 0 mm 2 mps 736 mmHg 32%
02:00 +18°C° 0 mm 2 mps 736 mmHg 36%
03:00 +17°C° 0 mm 2 mps 736 mmHg 40%
04:00 +17°C° 0 mm 2 mps 736 mmHg 44%
05:00 +16°C° 0 mm 2 mps 736 mmHg 47%
06:00 +18°C° 0 mm 2 mps 736 mmHg 44%
07:00 +21°C° 0 mm 3 mps 737 mmHg 41%
08:00 +24°C° 0 mm 3 mps 737 mmHg 38%
09:00 +26°C° 0 mm 4 mps 737 mmHg 33%
10:00 +27°C° 0 mm 4 mps 736 mmHg 28%
11:00 +29°C° 0 mm 5 mps 736 mmHg 23%
12:00 +30°C° 0 mm 5 mps 736 mmHg 20%
13:00 +32°C° 0 mm 5 mps 735 mmHg 18%
14:00 +33°C° 0 mm 5 mps 735 mmHg 15%
15:00 +33°C° 0 mm 4 mps 734 mmHg 15%
16:00 +34°C° 0 mm 4 mps 734 mmHg 14%
17:00 +34°C° 0 mm 4 mps 733 mmHg 13%
18:00 +32°C° 0 mm 4 mps 733 mmHg 16%
19:00 +29°C° 0 mm 4 mps 733 mmHg 18%
20:00 +27°C° 0 mm 4 mps 733 mmHg 20%
21:00 +26°C° 0 mm 4 mps 733 mmHg 22%
22:00 +25°C° 0 mm 4 mps 733 mmHg 24%
23:00 +23°C° 0 mm 4 mps 734 mmHg 26%

Day after tomorrow, 2 November, Monday

Time Temperature Precipitation Wind Pressure Humidity
00:00 +23°C° 0 mm 4 mps 733 mmHg 28%
01:00 +22°C° 0 mm 4 mps 733 mmHg 31%
02:00 +21°C° 0 mm 4 mps 733 mmHg 33%
03:00 +21°C° 0 mm 3 mps 733 mmHg 36%
04:00 +20°C° 0 mm 3 mps 732 mmHg 39%
05:00 +19°C° 0 mm 2 mps 732 mmHg 42%
06:00 +21°C° 0 mm 3 mps 732 mmHg 38%
07:00 +23°C° 0 mm 4 mps 732 mmHg 35%
08:00 +26°C° 0 mm 5 mps 732 mmHg 31%
09:00 +28°C° 0 mm 6 mps 732 mmHg 27%
10:00 +30°C° 0 mm 6 mps 732 mmHg 22%
11:00 +33°C° 0 mm 7 mps 732 mmHg 18%
12:00 +34°C° 0 mm 8 mps 731 mmHg 16%
13:00 +35°C° 0 mm 8 mps 731 mmHg 15%
14:00 +37°C° 0 mm 9 mps 730 mmHg 14%
15:00 +37°C° 0 mm 8 mps 730 mmHg 14%
16:00 +37°C° 0 mm 8 mps 729 mmHg 13%
17:00 +35°C° 0 mm 8 mps 728 mmHg 13%
18:00 +34°C° 0 mm 6 mps 729 mmHg 15%
19:00 +32°C° 0 mm 5 mps 729 mmHg 16%
20:00 +30°C° 0 mm 4 mps 729 mmHg 17%
21:00 +28°C° 0 mm 5 mps 730 mmHg 23%
22:00 +26°C° 0 mm 7 mps 730 mmHg 29%
23:00 +24°C° 0 mm 9 mps 730 mmHg 35%

3 November, Tuesday

Time Temperature Precipitation Wind Pressure Humidity
00:00 +23°C° 0 mm 9 mps 730 mmHg 36%
01:00 +22°C° 0 mm 10 mps 730 mmHg 38%
02:00 +22°C° 0 mm 10 mps 730 mmHg 40%
03:00 +21°C° 0 mm 9 mps 730 mmHg 39%
04:00 +21°C° 0 mm 9 mps 731 mmHg 39%
05:00 +19°C° 0 mm 9 mps 731 mmHg 39%
06:00 +21°C° 0 mm 9 mps 731 mmHg 36%
07:00 +22°C° 0 mm 10 mps 732 mmHg 32%
08:00 +23°C° 0 mm 10 mps 732 mmHg 28%
09:00 +26°C° 0 mm 9 mps 732 mmHg 26%
10:00 +27°C° 0 mm 8 mps 732 mmHg 25%
11:00 +28°C° 0 mm 7 mps 732 mmHg 23%
12:00 +28°C° 0 mm 5 mps 731 mmHg 22%
13:00 +29°C° 0 mm 4 mps 731 mmHg 20%
14:00 +30°C° 0 mm 2 mps 731 mmHg 19%
15:00 +30°C° 0 mm 3 mps 730 mmHg 19%
16:00 +30°C° 0 mm 3 mps 730 mmHg 19%
17:00 +30°C° 0 mm 4 mps 729 mmHg 19%
18:00 +28°C° 0 mm 4 mps 729 mmHg 23%
19:00 +26°C° 0 mm 4 mps 729 mmHg 27%
20:00 +23°C° 0 mm 4 mps 729 mmHg 31%
21:00 +22°C° 0 mm 3 mps 729 mmHg 35%
22:00 +23°C° 0 mm 2 mps 729 mmHg 39%
23:00 +22°C° 0 mm 1 mps 729 mmHg 44%

4 November, Wednesday

Time Temperature Precipitation Wind Pressure Humidity
00:00 +20°C° 0 mm 2 mps 729 mmHg 45%
01:00 +20°C° 0 mm 2 mps 729 mmHg 46%
02:00 +19°C° 0 mm 2 mps 729 mmHg 47%
03:00 +19°C° 0 mm 3 mps 729 mmHg 44%
04:00 +19°C° 0 mm 4 mps 729 mmHg 40%
05:00 +19°C° 0 mm 5 mps 729 mmHg 37%
06:00 +18°C° 0 mm 7 mps 729 mmHg 33%
07:00 +19°C° 0 mm 10 mps 729 mmHg 28%
08:00 +21°C° 0 mm 12 mps 729 mmHg 23%
09:00 +22°C° 0 mm 12 mps 729 mmHg 20%
10:00 +24°C° 0 mm 12 mps 729 mmHg 17%
11:00 +26°C° 0 mm 13 mps 729 mmHg 14%
12:00 +26°C° 0 mm 13 mps 729 mmHg 13%
13:00 +27°C° 0 mm 13 mps 729 mmHg 12%
14:00 +27°C° 0 mm 13 mps 728 mmHg 11%
15:00 +26°C° 0 mm 14 mps 728 mmHg 10%
16:00 +26°C° 0 mm 14 mps 728 mmHg 10%
17:00 +24°C° 0 mm 15 mps 728 mmHg 10%
18:00 +22°C° 0 mm 13 mps 728 mmHg 13%
19:00 +18°C° 0 mm 11 mps 729 mmHg 17%
20:00 +16°C° 0 mm 9 mps 730 mmHg 21%
21:00 +14°C° 0 mm 10 mps 730 mmHg 23%
22:00 +13°C° 0 mm 10 mps 730 mmHg 26%
23:00 +12°C° 0 mm 10 mps 731 mmHg 29%

5 November, Thursday

Time Temperature Precipitation Wind Pressure Humidity
00:00 +11°C° 0 mm 10 mps 731 mmHg 31%
01:00 +11°C° 0 mm 9 mps 730 mmHg 33%
02:00 +10°C° 0 mm 8 mps 730 mmHg 35%
03:00 +10°C° 0 mm 8 mps 730 mmHg 37%
04:00 +10°C° 0 mm 7 mps 731 mmHg 39%
05:00 +10°C° 0 mm 7 mps 731 mmHg 40%
06:00 +11°C° 0 mm 8 mps 731 mmHg 38%
07:00 +13°C° 0 mm 8 mps 731 mmHg 36%
08:00 +16°C° 0 mm 9 mps 732 mmHg 33%
09:00 +18°C° 0 mm 10 mps 732 mmHg 30%
10:00 +21°C° 0 mm 11 mps 732 mmHg 26%
11:00 +23°C° 0 mm 11 mps 732 mmHg 23%
12:00 +23°C° 0 mm 11 mps 733 mmHg 22%
13:00 +24°C° 0 mm 11 mps 733 mmHg 21%
14:00 +24°C° 0 mm 11 mps 733 mmHg 19%
15:00 +24°C° 0 mm 11 mps 734 mmHg 19%
16:00 +24°C° 0 mm 10 mps 734 mmHg 20%
17:00 +24°C° 0 mm 10 mps 734 mmHg 20%
18:00 +22°C° 0 mm 8 mps 735 mmHg 23%
19:00 +20°C° 0 mm 7 mps 735 mmHg 27%
20:00 +17°C° 0 mm 5 mps 736 mmHg 31%
21:00 +16°C° 0 mm 5 mps 736 mmHg 35%
22:00 +15°C° 0 mm 5 mps 737 mmHg 40%
23:00 +13°C° 0 mm 4 mps 737 mmHg 44%
Show more